weather.gov     
National Weather Service

Regional Weather Roundup
NWS Homepage
This page is being discontinued on March 12, 2014.
The same data is available at this site. Please update your bookmarks.
Thank you, and we apologize for the inconvenience.
Please send an email to SR-SRH.Webmaster@noaa.gov with any concerns.


Current Version
Previous Version:    01  02  03  04  05  06  07  08  09  10  11  12  13  14  15  16  17  18  19  20  21  22  23  24  25  26  
[Printable]
128
ASUS41 KBOX 300410
RWRBOX

REGIONAL WEATHER ROUNDUP
NATIONAL WEATHER SERVICE TAUNTON MA
1100 PM EST THU JAN 29 2015

NOTE:  "FAIR" INDICATES FEW OR NO CLOUDS BELOW 12,000 FEET WITH NO
SIGNIFICANT WEATHER AND/OR OBSTRUCTIONS TO VISIBILITY.  THE FOLLOWING
OBSERVATION LOCATIONS DO NOT REPORT PRESENT WEATHER...PROVINCETOWN...
SMITHFIELD...BLOCK ISLAND...KEENE...AND OXFORD.

MAZALL-300500-
EASTERN MASSACHUSETTS

CITY           SKY/WX    TMP DP  RH WIND       PRES   REMARKS
BOSTON         CLOUDY    28  21  75 SE6       30.08F WCI  22
BEVERLY        CLOUDY    29  19  66 S6        30.08F WCI  23
LAWRENCE       CLOUDY    29  19  66 VRB3      30.08F
BEDFORD        CLOUDY    27  18  69 CALM      30.07F
BLUE HILL        N/A     25  19  78 SE12      30.03F WCI  14
NORWOOD        CLOUDY    28  19  69 CALM      30.08F
MARSHFIELD     CLOUDY    30  23  74 SW3       30.11F
PLYMOUTH       CLOUDY    25  20  81 CALM      30.09F
TAUNTON        CLOUDY    28  21  75 E5        30.07F WCI  23
NEW BEDFORD    CLOUDY    29  25  85 SE6       30.07F WCI  23
$$

MAZALL-300500-
CAPE COD AND THE ISLANDS

CITY           SKY/WX    TMP DP  RH WIND       PRES   REMARKS
FALMOUTH       CLOUDY    25  21  86 CALM      30.10F
HYANNIS        CLOUDY    23  21  92 CALM      30.09F
CHATHAM        CLOUDY    26  23  88 SW3       30.11F
PROVINCETOWN   CLOUDY    30  25  80 SW7       30.11R WCI  23
NANTUCKET      CLOUDY    30  26  85 CALM      30.11F
MARTHAS VNYRD  CLOUDY    29  23  78 S7        30.10F WCI  22
$$

MAZALL-300500-
CENTRAL AND WESTERN MASSACHUSETTS

CITY           SKY/WX    TMP DP  RH WIND       PRES   REMARKS
WORCESTER      CLOUDY    25  19  78 S7        30.00F WCI  17
FITCHBURG      CLOUDY    29  17  61 SE5       30.05F WCI  24
ORANGE         CLOUDY    27  14  58 CALM      30.03S
SPRINGFIELD    CLOUDY    27  22  83 CALM      30.03F
WESTFIELD      FLURRIES  29  22  75 S5        30.03F WCI  24
NORTH ADAMS    LGT SNOW  26  22  84 VRB7G17   29.97F VSB 3/4 WCI  18
PITTSFIELD     LGT SNOW  25  22  88 SE7       29.92F FOG     WCI  17
$$

RIZALL-300500-
RHODE ISLAND

CITY           SKY/WX    TMP DP  RH WIND       PRES   REMARKS
PROVIDENCE     CLOUDY    28  21  75 CALM      30.07F
NEWPORT        CLOUDY    33  27  78 SE7       30.05F WCI  27
BLOCK ISLAND   CLOUDY    36  27  69 S12       30.04F WCI  27
SMITHFIELD     CLOUDY    28  16  59 SE3       30.04S
WESTERLY       CLOUDY    35  30  82 S9        30.06F WCI  28
$$

CTZALL-300500-
CONNECTICUT

CITY           SKY/WX    TMP DP  RH WIND       PRES   REMARKS
BRADLEY INTL   FLURRIES  29  22  75 SE3       30.03F
HARTFORD       CLOUDY    29  23  78 SE3       30.04F
BRIDGEPORT     CLOUDY    32  28  85 CALM      30.05F
DANBURY        CLOUDY    29  21  72 S5        30.02F WCI  24
GROTON         CLOUDY    35  31  85 SE12      30.05F WCI  27
NEW HAVEN      CLOUDY    33  28  81 CALM      30.04F
CHESTER        CLOUDY    32  28  86 CALM      30.02F
MERIDEN        CLOUDY    29  23  78 W3        30.04F
WILLIMANTIC    CLOUDY    29  22  75 CALM      30.05F
OXFORD         CLOUDY    28  19  69 S6        30.01S WCI  22
$$

MEZ002-015-021-024-NHZ003-005-008-011-012-014-VTZ005-008-300500-
NORTHERN NEW ENGLAND

CITY           SKY/WX    TMP DP  RH WIND       PRES   REMARKS
PORTLAND ME    MOCLDY    22  14  71 CALM      30.08F
BANGOR ME      PTCLDY     4   1  88 CALM      30.09F
CONCORD NH     CLOUDY    28  19  69 S3        30.06S
MANCHESTER NH  CLOUDY    29  20  69 S5        30.05S WCI  24
NASHUA NH      MOCLDY    28  20  72 CALM      30.07F
PORTSMOUTH NH  CLOUDY    24  19  81 S3        30.07R
JAFFREY NH     CLOUDY    26  13  57 S7        30.00F WCI  18
KEENE NH       CLOUDY    28  16  59 S9        30.02R WCI  20
BURLINGTON VT  FLURRIES  30  15  53 S17G26    29.87F WCI  18
MT. WASHINGTON FLURRIES   9  -4  56 S61G69      N/A  WCI -21
$$

NYZ052-076-300500-
EASTERN NEW YORK

CITY           SKY/WX    TMP DP  RH WIND       PRES   REMARKS
ALBANY         LGT SNOW  28  20  71 S13G26    29.94F WCI  17
NEW YORK CITY  CLOUDY    34  26  72 SW7       30.03F WCI  28
$$

ANZALL-300500-
MARINE OBSERVATIONS

STATION/POSITION TIME  TEMP    WIND        PRES    VSBY  WAVE
                       AIR SEA DIR/SP/G                  HT/PER
                 (UTC) (F)     (DEG/KT/KT) (MB)    (MI)  (FT/S)
BOSTON BUOY      0350   31 40  220/ 12/ 14 1019.4R         2/10
BUZZARDS BAY     0300          170/ 12/ 14 1019.8F
NANTUCKET SOUND  NOT AVBL
MASS BAY-STELLWA 0304   32 41  190/ 12/ 14   N/A
ISLE OF SHOALS   0400   32     220/ 17/ 18 1018.2R
S OF BLOCK IS    0308      42                N/A           2/10
$$

......................KEY.........................
  SKY/WX - SKY CONDITION/PRESENT WEATHER
  TMP    - TEMPERATURE IN FAHRENHEIT
  DWPT   - DEWPOINT IN FAHRENHEIT
  RH     - RELATIVE HUMIDITY IN PERCENT
  WIND   - DIRECTION AND SPEED IN MPH
  PRES   - MEAN SEA LEVEL PRESSURE IN INCHES OF HG
  WCI    - WIND CHILL INDEX
  VSB    - VISIBILITY IN MILES
  HX     - HEAT INDEX
  TC     - TEMPERATURE IN CELSIUS
  VRB    - VARIABLE WIND DIRECTION
  N/A    - NOT AVAILABLE




U.S. Dept. of Commerce
NOAA National Weather Service
1325 East West Highway
Silver Spring, MD 20910
E-mail: w-nws.webmaster@noaa.gov
Page last modified: May 16, 2007
NATIONAL WEATHER SERVICE: for Safety, for Work, for Fun - FOR LIFE